TimeEDT,TemperatureF,Dew PointF,Humidity,Sea Level PressureIn,VisibilityMPH,Wind Direction,Wind SpeedMPH,Gust SpeedMPH,PrecipitationIn,Events,Conditions,WindDirDegrees,DateUTC
12:02 AM,60.8,59.0,94,30.00,0.8,Calm,Calm,-,N/A,,Mist,0,2012-05-24 04:02:00
12:16 AM,60.8,59.0,94,30.00,0.8,Calm,Calm,-,N/A,,Mist,0,2012-05-24 04:16:00
12:19 AM,60.8,59.0,94,30.00,1.0,Calm,Calm,-,N/A,,Mist,0,2012-05-24 04:19:00
12:27 AM,60.8,59.0,94,30.00,0.5,Calm,Calm,-,N/A,Fog,Fog,0,2012-05-24 04:27:00
12:34 AM,60.8,59.0,94,30.00,0.2,Calm,Calm,-,N/A,Fog,Fog,0,2012-05-24 04:34:00
12:46 AM,60.8,59.0,94,30.00,0.8,Calm,Calm,-,N/A,,Mist,0,2012-05-24 04:46:00
12:54 AM,60.1,59.0,96,29.95,0.8,Calm,Calm,-,N/A,,Mist,0,2012-05-24 04:54:00
1:02 AM,60.8,59.0,94,30.00,0.8,Calm,Calm,-,N/A,,Mist,0,2012-05-24 05:02:00
1:26 AM,60.8,59.0,94,30.00,0.5,Calm,Calm,-,N/A,Fog,Fog,0,2012-05-24 05:26:00
1:42 AM,60.8,59.0,94,30.00,0.2,Calm,Calm,-,N/A,Fog,Fog,0,2012-05-24 05:42:00
1:54 AM,60.1,59.0,96,29.95,0.2,Calm,Calm,-,N/A,Fog,Fog,0,2012-05-24 05:54:00
2:54 AM,60.1,59.0,96,29.93,0.2,East,3.5,-,N/A,Fog,Fog,100,2012-05-24 06:54:00
3:02 AM,59.0,57.2,94,29.99,0.5,Calm,Calm,-,N/A,Fog,Fog,0,2012-05-24 07:02:00
3:54 AM,59.0,57.9,96,29.94,0.5,Calm,Calm,-,N/A,Fog,Fog,0,2012-05-24 07:54:00
4:17 AM,59.0,59.0,100,30.00,0.2,Calm,Calm,-,N/A,Fog,Fog,0,2012-05-24 08:17:00
4:37 AM,59.0,57.2,94,30.00,0.5,Calm,Calm,-,N/A,Fog,Fog,0,2012-05-24 08:37:00
4:54 AM,59.0,57.9,96,29.96,0.5,Calm,Calm,-,N/A,Fog,Fog,0,2012-05-24 08:54:00
5:18 AM,59.0,57.2,94,30.01,1.5,Calm,Calm,-,N/A,,Overcast,0,2012-05-24 09:18:00
5:25 AM,59.0,57.2,94,30.01,3.0,Calm,Calm,-,N/A,,Overcast,0,2012-05-24 09:25:00
5:40 AM,59.0,57.2,94,30.01,2.0,Calm,Calm,-,N/A,,Overcast,0,2012-05-24 09:40:00
5:47 AM,59.0,57.2,94,30.01,1.5,Calm,Calm,-,N/A,,Overcast,0,2012-05-24 09:47:00
5:54 AM,59.0,57.9,96,29.96,1.0,Calm,Calm,-,N/A,,Mist,0,2012-05-24 09:54:00
6:18 AM,57.2,57.2,100,30.02,0.8,Calm,Calm,-,N/A,,Mist,0,2012-05-24 10:18:00
6:38 AM,57.2,57.2,100,30.03,0.2,Calm,Calm,-,N/A,Fog,Fog,0,2012-05-24 10:38:00
6:54 AM,59.0,57.9,96,29.99,0.2,Calm,Calm,-,N/A,Fog,Fog,0,2012-05-24 10:54:00
7:54 AM,59.0,57.9,96,30.01,0.2,Calm,Calm,-,N/A,Fog,Fog,0,2012-05-24 11:54:00
8:34 AM,60.8,59.0,94,30.07,0.5,Calm,Calm,-,N/A,Fog,Fog,0,2012-05-24 12:34:00
8:43 AM,60.8,59.0,94,30.07,1.5,Calm,Calm,-,N/A,,Overcast,0,2012-05-24 12:43:00
8:49 AM,60.8,59.0,94,30.07,3.0,Calm,Calm,-,N/A,,Overcast,0,2012-05-24 12:49:00
8:54 AM,61.0,60.1,97,30.02,5.0,Calm,Calm,-,N/A,,Overcast,0,2012-05-24 12:54:00
9:30 AM,62.6,60.8,94,30.08,8.0,Calm,Calm,-,N/A,,Overcast,0,2012-05-24 13:30:00
9:54 AM,66.0,61.0,84,30.02,10.0,Calm,Calm,-,N/A,,Scattered Clouds,0,2012-05-24 13:54:00
10:54 AM,70.0,61.0,73,30.02,10.0,SSW,4.6,-,N/A,,Clear,200,2012-05-24 14:54:00
11:54 AM,73.9,60.1,62,30.02,10.0,SSE,6.9,-,N/A,,Clear,150,2012-05-24 15:54:00
12:54 PM,77.0,55.9,48,30.01,10.0,South,9.2,-,0.01,,Partly Cloudy,170,2012-05-24 16:54:00
1:54 PM,75.9,55.9,50,30.00,10.0,Variable,6.9,-,N/A,,Partly Cloudy,0,2012-05-24 17:54:00
2:54 PM,78.1,54.0,43,29.99,10.0,South,8.1,17.3,N/A,,Partly Cloudy,170,2012-05-24 18:54:00
3:54 PM,78.1,57.0,48,29.97,10.0,South,11.5,-,N/A,,Scattered Clouds,170,2012-05-24 19:54:00
4:54 PM,78.1,55.0,45,29.96,10.0,South,15.0,-,N/A,,Partly Cloudy,190,2012-05-24 20:54:00
5:54 PM,78.1,57.0,48,29.96,10.0,South,12.7,-,N/A,,Partly Cloudy,180,2012-05-24 21:54:00
6:54 PM,77.0,57.0,50,29.95,10.0,SSE,8.1,-,N/A,,Partly Cloudy,160,2012-05-24 22:54:00
7:54 PM,75.0,57.0,53,29.98,10.0,SSE,4.6,-,N/A,,Clear,150,2012-05-24 23:54:00
8:54 PM,73.0,59.0,61,29.99,10.0,SE,4.6,-,N/A,,Scattered Clouds,130,2012-05-25 00:54:00
9:54 PM,70.0,61.0,73,30.01,10.0,Calm,Calm,-,N/A,,Overcast,0,2012-05-25 01:54:00
10:54 PM,69.1,61.0,75,30.03,10.0,Calm,Calm,-,N/A,,Scattered Clouds,0,2012-05-25 02:54:00
11:54 PM,66.0,61.0,84,30.03,10.0,Calm,Calm,-,N/A,,Scattered Clouds,0,2012-05-25 03:54:00